Regional Weather Roundup
Issued by NWS State College, PA

Home | Current Version | Previous Version | Graphics & Text | Print | Product List | Glossary On
Versions: 1 2 3 4 5 6 7 8 9 10 11 12 13 14 15 16 17 18 19 20 21 22 23 24 25 26 27 28 29 30 31 32 33 34 35 36 37 38 39 40 41 42 43 44 45 46 47 48 49 50
000
ASUS41 KCTP 231903
RWRCTP

REGIONAL WEATHER ROUNDUP
NATIONAL WEATHER SERVICE STATE COLLEGE PA
300 PM EDT THU MAR 23 2017

Note: "fair" indicates few or no clouds below 12,000 feet with no
significant weather and/or obstructions to visibility.

* = STATION THAT DOES NOT REPORT PRECIPITATION /E.G. RAIN...SNOW...ETC/
    THUNDER OR FOG.

PAZ002>004-007>009-013>016-020>023-029>032-232000-
WESTERN PENNSYLVANIA

CITY           SKY/WX    TMP DP  RH WIND       PRES   REMARKS
ERIE           SUNNY     36  19  50 NE12      30.48F
MEADVILLE      SUNNY     41   8  25 CALM      30.42F
FRANKLIN*      SUNNY     43   9  24 SE7       30.44F
NEW CASTLE     FAIR      46   6  19 VRB7      30.44F
BEAVER COUNTY  SUNNY     45   9  23 SE9       30.44F
BUTLER*        SUNNY     45  12  26 E6G21     30.45F
PITTSBURGH INT MOSUNNY   44   3  18 SE6       30.44F
PITTSBURGH     SUNNY     45  -1  14 VRB3      30.43F
INDIANA*       SUNNY     43   5  21 VRB5      30.47F
LATROBE        SUNNY     46   3  17 N6        30.46F
WASHINGTON CO* SUNNY     46   7  19 E9        30.45F
$$

PAZ004>006-010>012-017>019-024>028-033>037-041-042-045-046-049>053-232000-
CENTRAL PENNSYLVANIA

CITY           SKY/WX    TMP DP  RH WIND       PRES   REMARKS
BRADFORD       SUNNY     39   3  22 CALM      30.41F
DUBOIS         SUNNY     41   0  18 VRB5      30.42F
CLEARFIELD       N/A    N/A N/A N/A MISG      30.46F
JOHNSTOWN      SUNNY     40   4  22 S8        30.41F
ALTOONA        SUNNY     42  10  27 W3        30.48F
STATE COLLEGE  SUNNY     39   5  24 SW7       30.49F
WILLIAMSPORT   SUNNY     42   5  21 W9        30.53F
SELINSGROVE    SUNNY     39  12  33 VRB3      30.55F
FT INDIANTOWN  SUNNY     42   8  24 SW10      30.53F
CAPITAL CITY   SUNNY     43   4  19 SW9       30.56F
HARRISBURG     MOSUNNY   42   7  23 NW8       30.55F
YORK           SUNNY     41  11  29 CALM      30.55F
$$

PAZ038>040-043-044-047-048-054-055-060>062-067>071-232000-
EASTERN PENNSYLVANIA

CITY           SKY/WX    TMP DP  RH WIND       PRES   REMARKS
SCRANTON       SUNNY     33   7  33 SW6       30.52F
MOUNT POCONO   SUNNY     31  -3  23 W12       30.44F
ALLENTOWN      SUNNY     42   6  22 W12G20    30.53F
QUAKERTOWN*    CLEAR     39   9  28 NW5       30.54F
READING        SUNNY     42  12  29 MISG      30.54F
LANCASTER      SUNNY     41  12  30 SW8       30.56F
COATESVILLE    CLEAR     39   9  28 NW13      30.56S
POTTSTOWN      SUNNY     39   8  27 VRB6      30.56F
BLUE BELL      SUNNY     39  12  33 W6        30.54F
DOYLESTOWN     SUNNY     33   7  33 VRB3      30.53F
WILLOW GROVE   NOT AVBL
NORTH PHILA    SUNNY     44   7  21 VRB7      30.57F
PHILADELPHIA   MOSUNNY   42   6  22 S12       30.57F
$$




USA.gov is the U.S. government's official web portal to all federal, state and local government web resources and services.